| time (UTC) | temp F | wind direction | speed knots | gust knots | rain 1hr in | rain 24hr in | rain mn in | humidity % | barometer mb |
| 20260506184940 | 53 | 19 | 7.0 | 10.4 | 0.00 | 0.06 | 0.06 | 68 | 1010.7 |
| 20260506184438 | 53 | 14 | 7.8 | 10.4 | 0.00 | 0.06 | 0.06 | 65 | 1010.6 |
| 20260506183938 | 53 | 351 | 7.0 | 8.7 | 0.00 | 0.06 | 0.06 | 65 | 1010.6 |
| 20260506183437 | 53 | 16 | 7.0 | 8.7 | 0.00 | 0.06 | 0.06 | 66 | 1010.6 |
| 20260506182938 | 53 | 24 | 7.0 | 9.6 | 0.00 | 0.06 | 0.06 | 65 | 1010.5 |
| 20260506182437 | 54 | 26 | 6.1 | 9.6 | 0.00 | 0.06 | 0.06 | 66 | 1010.4 |
| 20260506181937 | 54 | 29 | 5.2 | 7.8 | 0.00 | 0.06 | 0.06 | 65 | 1010.5 |
| 20260506181438 | 54 | 31 | 4.3 | 7.0 | 0.00 | 0.06 | 0.06 | 65 | 1010.4 |
| 20260506180939 | 54 | 3 | 4.3 | 6.1 | 0.00 | 0.06 | 0.06 | 66 | 1010.4 |
| 20260506180438 | 54 | 19 | 4.3 | 6.1 | 0.00 | 0.06 | 0.06 | 64 | 1010.3 |
| 20260506175938 | 54 | 30 | 2.6 | 4.3 | 0.00 | 0.06 | 0.06 | 65 | 1010.2 |
| 20260506175438 | 54 | 3 | 2.6 | 5.2 | 0.00 | 0.06 | 0.06 | 65 | 1010.2 |
| 20260506174936 | 54 | 26 | 3.5 | 5.2 | 0.00 | 0.06 | 0.06 | 63 | 1010.1 |
| 20260506174432 | 54 | 30 | 3.5 | 5.2 | 0.00 | 0.06 | 0.06 | 63 | 1010.0 |
| 20260506173933 | 54 | 30 | 3.5 | 5.2 | 0.00 | 0.07 | 0.06 | 63 | 1010.0 |
| 20260506173432 | 54 | 28 | 3.5 | 5.2 | 0.00 | 0.07 | 0.06 | 63 | 1009.9 |
| 20260506172932 | 54 | 26 | 3.5 | 5.2 | 0.00 | 0.07 | 0.06 | 62 | 1009.9 |
| 20260506172431 | 54 | 33 | 3.5 | 5.2 | 0.00 | 0.07 | 0.06 | 62 | 1009.8 |
| 20260506171931 | 55 | 35 | 3.5 | 5.2 | 0.00 | 0.07 | 0.06 | 58 | 1009.7 |
| 20260506171431 | 55 | 63 | 3.5 | 5.2 | 0.00 | 0.07 | 0.06 | 58 | 1009.7 |
| 20260506170932 | 55 | 63 | 3.5 | 6.1 | 0.00 | 0.07 | 0.06 | 59 | 1009.7 |
| 20260506170438 | 55 | 43 | 3.5 | 6.1 | 0.00 | 0.07 | 0.06 | 58 | 1009.6 |
| 20260506165938 | 55 | 30 | 3.5 | 6.1 | 0.00 | 0.07 | 0.06 | 59 | 1009.6 |
| 20260506165435 | 55 | 38 | 3.5 | 6.1 | 0.00 | 0.07 | 0.06 | 60 | 1009.6 |
| 20260506164932 | 55 | 37 | 4.3 | 7.0 | 0.00 | 0.07 | 0.06 | 62 | 1009.6 |
| 20260506164437 | 55 | 65 | 5.2 | 7.8 | 0.00 | 0.08 | 0.06 | 57 | 1009.6 |
| 20260506164430 | 55 | 34 | 5.2 | 7.8 | 0.00 | 0.08 | 0.06 | 60 | 1009.6 |
| 20260506163427 | 55 | 38 | 5.2 | 7.8 | 0.00 | 0.08 | 0.06 | 55 | 1009.6 |
| 20260506162928 | 55 | 44 | 5.2 | 9.6 | 0.00 | 0.08 | 0.06 | 57 | 1009.6 |
| 20260506162428 | 55 | 52 | 5.2 | 9.6 | 0.00 | 0.08 | 0.06 | 59 | 1009.6 |
| 20260506161928 | 55 | 58 | 5.2 | 7.8 | 0.00 | 0.09 | 0.06 | 57 | 1009.6 |
| 20260506161427 | 55 | 33 | 5.2 | 9.6 | 0.00 | 0.09 | 0.06 | 56 | 1009.5 |
| 20260506160928 | 55 | 43 | 6.1 | 10.4 | 0.00 | 0.09 | 0.06 | 54 | 1009.5 |
| 20260506160427 | 55 | 48 | 7.0 | 10.4 | 0.00 | 0.09 | 0.06 | 57 | 1009.5 |
| 20260506155926 | 55 | 44 | 7.0 | 13.0 | 0.00 | 0.09 | 0.06 | 57 | 1009.5 |
| 20260506155425 | 55 | 63 | 7.0 | 13.0 | 0.00 | 0.09 | 0.06 | 58 | 1009.6 |
| 20260506155159 | 55 | 34 | 7.0 | 13.9 | 0.00 | 0.09 | 0.06 | 58 | 1009.5 |
| 20260506154925 | 55 | 38 | 7.0 | 11.3 | 0.00 | 0.09 | 0.06 | 59 | 1009.6 |
| 20260506153920 | 55 | 41 | 7.8 | 13.9 | 0.00 | 0.09 | 0.06 | 57 | 1009.5 |
| 20260506153419 | 55 | 17 | 7.8 | 13.0 | 0.00 | 0.09 | 0.06 | 60 | 1009.5 |
| 20260506152916 | 55 | 33 | 7.0 | 11.3 | 0.00 | 0.09 | 0.06 | 59 | 1009.5 |
| 20260506152416 | 55 | 12 | 6.1 | 11.3 | 0.00 | 0.09 | 0.06 | 58 | 1009.5 |
| 20260506152147 | 55 | 37 | 6.1 | 11.3 | 0.00 | 0.09 | 0.06 | 57 | 1009.6 |
| 20260506151417 | 55 | 31 | 6.1 | 11.3 | 0.00 | 0.09 | 0.06 | 57 | 1009.5 |
| 20260506150917 | 55 | 48 | 7.0 | 11.3 | 0.00 | 0.09 | 0.06 | 58 | 1009.5 |
| 20260506150417 | 55 | 57 | 7.0 | 10.4 | 0.00 | 0.09 | 0.06 | 56 | 1009.5 |
| 20260506150148 | 55 | 38 | 7.8 | 14.8 | 0.00 | 0.09 | 0.06 | 57 | 1009.5 |
| 20260506145414 | 55 | 43 | 8.7 | 16.5 | 0.00 | 0.09 | 0.06 | 57 | 1009.4 |
| 20260506144911 | 55 | 35 | 8.7 | 16.5 | 0.00 | 0.09 | 0.06 | 57 | 1009.4 |
| 20260506144408 | 55 | 37 | 7.0 | 11.3 | 0.00 | 0.09 | 0.06 | 57 | 1009.4 |
| 20260506143908 | 55 | 46 | 7.0 | 10.4 | 0.00 | 0.09 | 0.06 | 57 | 1009.4 |
| 20260506143406 | 55 | 37 | 7.0 | 11.3 | 0.00 | 0.09 | 0.06 | 59 | 1009.4 |
| 20260506142906 | 55 | 56 | 7.0 | 12.2 | 0.00 | 0.09 | 0.06 | 56 | 1009.3 |
| 20260506142406 | 54 | 42 | 7.0 | 12.2 | 0.00 | 0.09 | 0.06 | 58 | 1009.4 |
| 20260506141906 | 54 | 37 | 7.8 | 12.2 | 0.00 | 0.09 | 0.06 | 57 | 1009.4 |
| 20260506141406 | 54 | 42 | 7.8 | 14.8 | 0.00 | 0.09 | 0.06 | 58 | 1009.5 |
| 20260506141137 | 54 | 69 | 9.6 | 16.5 | 0.00 | 0.09 | 0.06 | 58 | 1009.4 |
| 20260506140407 | 54 | 34 | 9.6 | 16.5 | 0.00 | 0.09 | 0.06 | 58 | 1009.3 |
| 20260506135907 | 55 | 36 | 7.8 | 13.9 | 0.00 | 0.09 | 0.06 | 56 | 1009.4 |
| 20260506135403 | 55 | 39 | 7.8 | 13.9 | 0.00 | 0.09 | 0.06 | 57 | 1009.4 |
| 20260506134902 | 55 | 27 | 7.8 | 13.9 | 0.00 | 0.09 | 0.06 | 55 | 1009.3 |
| 20260506134636 | 55 | 60 | 7.8 | 13.9 | 0.00 | 0.09 | 0.06 | 53 | 1009.3 |
| 20260506133900 | 55 | 31 | 7.8 | 13.9 | 0.00 | 0.09 | 0.06 | 53 | 1009.2 |
| 20260506133400 | 56 | 36 | 7.8 | 13.9 | 0.00 | 0.09 | 0.06 | 54 | 1009.3 |
| 20260506132858 | 55 | 31 | 10.4 | 20.9 | 0.00 | 0.09 | 0.06 | 53 | 1009.2 |
| 20260506132357 | 55 | 38 | 13.9 | 20.9 | 0.00 | 0.09 | 0.06 | 52 | 1009.1 |
| 20260506131855 | 55 | 16 | 15.6 | 22.6 | 0.00 | 0.09 | 0.06 | 51 | 1009.1 |
| 20260506131355 | 55 | 23 | 15.6 | 22.6 | 0.00 | 0.09 | 0.06 | 52 | 1008.8 |
| 20260506130855 | 55 | 31 | 14.8 | 20.9 | 0.00 | 0.09 | 0.06 | 52 | 1008.9 |
| 20260506130356 | 55 | 25 | 12.2 | 18.2 | 0.00 | 0.09 | 0.05 | 52 | 1009.0 |
| 20260506125856 | 56 | 27 | 11.3 | 20.0 | 0.00 | 0.09 | 0.05 | 53 | 1009.0 |
| 20260506125632 | 56 | 36 | 12.2 | 20.0 | 0.00 | 0.09 | 0.05 | 52 | 1008.9 |
| 20260506124856 | 56 | 21 | 13.0 | 18.2 | 0.00 | 0.09 | 0.05 | 52 | 1008.9 |
| 20260506124354 | 56 | 14 | 12.2 | 18.2 | 0.00 | 0.09 | 0.05 | 52 | 1008.8 |
| 20260506123855 | 56 | 32 | 10.4 | 18.2 | 0.00 | 0.09 | 0.05 | 58 | 1008.7 |
| 20260506123355 | 56 | 39 | 10.4 | 17.4 | 0.00 | 0.09 | 0.05 | 60 | 1008.6 |
| 20260506122855 | 55 | 28 | 11.3 | 17.4 | 0.00 | 0.09 | 0.05 | 62 | 1008.7 |
| 20260506122354 | 55 | 29 | 9.6 | 16.5 | 0.00 | 0.09 | 0.05 | 60 | 1008.7 |
| 20260506122123 | 55 | 11 | 7.8 | 13.0 | 0.00 | 0.09 | 0.05 | 60 | 1008.7 |
| 20260506121350 | 55 | 11 | 7.8 | 12.2 | 0.00 | 0.09 | 0.05 | 63 | 1008.8 |
| 20260506120849 | 54 | 9 | 7.8 | 12.2 | 0.00 | 0.09 | 0.05 | 63 | 1008.8 |
| 20260506120350 | 54 | 5 | 7.0 | 9.6 | 0.00 | 0.09 | 0.05 | 66 | 1008.8 |
| 20260506115849 | 54 | 3 | 7.0 | 10.4 | 0.00 | 0.09 | 0.05 | 70 | 1008.8 |
| 20260506115350 | 54 | 20 | 7.8 | 13.0 | 0.00 | 0.09 | 0.05 | 69 | 1008.8 |
| 20260506114849 | 54 | 7 | 8.7 | 13.0 | 0.00 | 0.09 | 0.05 | 69 | 1008.8 |
| 20260506114350 | 54 | 11 | 9.6 | 13.9 | 0.00 | 0.09 | 0.05 | 70 | 1008.8 |
| 20260506113850 | 54 | 10 | 9.6 | 13.9 | 0.00 | 0.09 | 0.05 | 71 | 1008.7 |
| 20260506113350 | 53 | 6 | 9.6 | 13.9 | 0.00 | 0.09 | 0.05 | 72 | 1008.8 |
| 20260506112850 | 53 | 3 | 8.7 | 15.6 | 0.00 | 0.09 | 0.05 | 74 | 1008.9 |
| 20260506112350 | 53 | 16 | 10.4 | 15.6 | 0.00 | 0.09 | 0.05 | 74 | 1008.9 |
| 20260506111849 | 53 | 11 | 10.4 | 14.8 | 0.00 | 0.09 | 0.05 | 74 | 1008.8 |
| 20260506111347 | 53 | 1 | 10.4 | 15.6 | 0.00 | 0.09 | 0.05 | 75 | 1008.8 |
| 20260506110848 | 53 | 6 | 10.4 | 15.6 | 0.00 | 0.09 | 0.05 | 76 | 1008.7 |
| 20260506110344 | 53 | 0 | 11.3 | 16.5 | 0.00 | 0.09 | 0.05 | 77 | 1008.8 |
| 20260506105845 | 53 | 21 | 12.2 | 21.7 | 0.00 | 0.09 | 0.05 | 77 | 1008.7 |
| 20260506105345 | 53 | 18 | 13.0 | 21.7 | 0.00 | 0.09 | 0.05 | 78 | 1008.6 |
| 20260506104844 | 53 | 13 | 13.0 | 18.2 | 0.00 | 0.09 | 0.05 | 76 | 1008.7 |
| 20260506104345 | 53 | 8 | 13.0 | 20.9 | 0.00 | 0.09 | 0.05 | 77 | 1008.5 |
| 20260506103845 | 54 | 13 | 14.8 | 20.9 | 0.00 | 0.09 | 0.05 | 77 | 1008.6 |
| 20260506103621 | 54 | 9 | 14.8 | 20.9 | 0.00 | 0.09 | 0.05 | 74 | 1008.2 |
| 20260506103616 | 54 | 8 | 13.9 | 19.1 | 0.01 | 0.09 | 0.05 | 73 | 1008.5 |
| 20260506102343 | 55 | 6 | 12.2 | 18.2 | 0.01 | 0.09 | 0.05 | 71 | 1008.5 |
| 20260506101842 | 55 | 13 | 11.3 | 14.8 | 0.02 | 0.09 | 0.05 | 68 | 1008.4 |
| 20260506101339 | 55 | 9 | 12.2 | 19.1 | 0.02 | 0.09 | 0.05 | 65 | 1008.4 |
| 20260506100836 | 55 | 4 | 13.0 | 19.1 | 0.02 | 0.08 | 0.05 | 67 | 1008.2 |
| 20260506100604 | 55 | 6 | 12.2 | 19.1 | 0.02 | 0.08 | 0.05 | 68 | 1008.1 |
| 20260506095834 | 55 | 20 | 12.2 | 19.1 | 0.02 | 0.08 | 0.05 | 68 | 1008.1 |
| 20260506095337 | 56 | 33 | 13.0 | 19.1 | 0.04 | 0.08 | 0.05 | 65 | 1008.3 |
| 20260506094836 | 56 | 16 | 12.2 | 19.1 | 0.04 | 0.08 | 0.05 | 65 | 1008.1 |
| 20260506094335 | 56 | 30 | 11.3 | 21.7 | 0.04 | 0.08 | 0.05 | 65 | 1008.0 |
| 20260506093835 | 56 | 43 | 13.9 | 24.3 | 0.04 | 0.08 | 0.05 | 64 | 1008.1 |
| 20260506093601 | 55 | 28 | 16.5 | 24.3 | 0.04 | 0.08 | 0.05 | 64 | 1008.1 |
| 20260506092835 | 55 | 25 | 17.4 | 24.3 | 0.04 | 0.08 | 0.04 | 64 | 1007.9 |
| 20260506092335 | 55 | 16 | 14.8 | 22.6 | 0.04 | 0.07 | 0.04 | 66 | 1007.7 |
| 20260506091835 | 55 | 14 | 13.0 | 20.0 | 0.03 | 0.07 | 0.03 | 67 | 1007.7 |
| 20260506091336 | 55 | 29 | 12.2 | 19.1 | 0.03 | 0.07 | 0.03 | 67 | 1008.0 |
| 20260506090833 | 55 | 27 | 13.9 | 22.6 | 0.03 | 0.07 | 0.03 | 65 | 1007.8 |
| 20260506090329 | 55 | 31 | 16.5 | 24.3 | 0.02 | 0.06 | 0.02 | 68 | 1007.9 |
| 20260506085826 | 55 | 32 | 15.6 | 24.3 | 0.02 | 0.06 | 0.02 | 66 | 1007.8 |
| 20260506085322 | 55 | 30 | 13.0 | 22.6 | 0.01 | 0.05 | 0.01 | 67 | 1007.5 |
| 20260506084823 | 55 | 15 | 12.2 | 22.6 | 0.00 | 0.04 | 0.01 | 66 | 1007.9 |
| 20260506084322 | 55 | 44 | 13.9 | 20.9 | 0.00 | 0.04 | 0.00 | 68 | 1007.5 |
| 20260506083823 | 55 | 22 | 15.6 | 20.9 | 0.00 | 0.04 | 0.00 | 67 | 1007.8 |
| 20260506083323 | 55 | 16 | 14.8 | 20.0 | 0.00 | 0.04 | 0.00 | 67 | 1007.9 |
| 20260506082823 | 54 | 10 | 13.0 | 20.0 | 0.00 | 0.04 | 0.00 | 70 | 1007.6 |
| 20260506082323 | 54 | 7 | 11.3 | 16.5 | 0.00 | 0.04 | 0.00 | 76 | 1007.8 |
| 20260506081822 | 54 | 358 | 11.3 | 14.8 | 0.00 | 0.04 | 0.00 | 78 | 1007.7 |
| 20260506081333 | 54 | 336 | 9.6 | 13.9 | 0.00 | 0.04 | 0.00 | 78 | 1007.8 |
| 20260506081325 | 54 | 8 | 10.4 | 14.8 | 0.00 | 0.04 | 0.00 | 77 | 1007.7 |
| 20260506080323 | 54 | 14 | 8.7 | 13.0 | 0.00 | 0.04 | 0.00 | 78 | 1007.8 |
| 20260506073320 | 52 | 14 | 8.7 | 14.8 | 0.00 | 0.04 | 0.00 | 82 | 1007.6 |
| 20260506072821 | 52 | 327 | 7.8 | 11.3 | 0.00 | 0.04 | 0.00 | 87 | 1007.7 |
| 20260506072321 | 52 | 357 | 8.7 | 13.0 | 0.00 | 0.04 | 0.00 | 87 | 1007.8 |
| 20260506071821 | 51 | 343 | 8.7 | 13.9 | 0.00 | 0.04 | 0.00 | 88 | 1007.8 |
| 20260506071320 | 51 | 335 | 9.6 | 14.8 | 0.00 | 0.04 | 0.00 | 88 | 1007.7 |
| 20260506070821 | 51 | 337 | 10.4 | 14.8 | 0.00 | 0.04 | 0.00 | 88 | 1007.7 |
| 20260506070559 | 51 | 339 | 9.6 | 13.9 | 0.00 | 0.04 | 0.00 | 88 | 1007.7 |
| 20260506062315 | 50 | 330 | 8.7 | 13.9 | 0.00 | 0.04 | 0.00 | 88 | 1007.6 |
| 20260506061816 | 50 | 352 | 7.8 | 12.2 | 0.00 | 0.04 | 0.00 | 89 | 1007.5 |
| 20260506061316 | 50 | 344 | 7.8 | 12.2 | 0.00 | 0.04 | 0.00 | 89 | 1007.5 |
| 20260506060815 | 50 | 341 | 7.8 | 12.2 | 0.00 | 0.04 | 0.00 | 89 | 1007.5 |
| 20260506060547 | 50 | 343 | 7.8 | 12.2 | 0.00 | 0.04 | 0.00 | 89 | 1007.6 |
| 20260506051303 | 50 | 345 | 7.8 | 12.2 | 0.00 | 0.04 | 0.00 | 91 | 1007.4 |
| 20260506050803 | 50 | 331 | 7.0 | 10.4 | 0.00 | 0.04 | 0.00 | 91 | 1007.4 |
| 20260506050304 | 49 | 26 | 7.0 | 10.4 | 0.00 | 0.04 | 0.00 | 92 | 1007.5 |
| 20260506044804 | 49 | 355 | 5.2 | 8.7 | 0.00 | 0.04 | 0.00 | 97 | 1007.5 |
| 20260506044302 | 49 | 339 | 5.2 | 8.7 | 0.00 | 0.04 | 0.00 | 98 | 1007.6 |
| 20260506043803 | 49 | 354 | 6.1 | 9.6 | 0.00 | 0.04 | 0.00 | 98 | 1007.6 |
| 20260506043302 | 49 | 321 | 7.0 | 10.4 | 0.00 | 0.04 | 0.00 | 97 | 1007.7 |
| 20260506042803 | 49 | 330 | 7.8 | 10.4 | 0.00 | 0.04 | 0.00 | 96 | 1007.7 |
| 20260506042305 | 49 | 339 | 7.0 | 10.4 | 0.00 | 0.04 | 0.00 | 95 | 1007.6 |
| 20260506041802 | 49 | 325 | 6.1 | 9.6 | 0.00 | 0.04 | 0.00 | 93 | 1007.6 |
| 20260506041303 | 49 | 343 | 5.2 | 7.8 | 0.00 | 0.04 | 0.00 | 93 | 1007.7 |
| 20260506040803 | 49 | 324 | 5.2 | 7.8 | 0.00 | 0.04 | 0.00 | 93 | 1007.6 |
| 20260506040303 | 49 | 340 | 5.2 | 7.8 | 0.00 | 0.04 | 0.00 | 92 | 1007.7 |
| 20260506035802 | 49 | 344 | 5.2 | 8.7 | 0.00 | 0.04 | 0.00 | 92 | 1007.7 |
| 20260506035305 | 49 | 353 | 7.0 | 10.4 | 0.00 | 0.04 | 0.00 | 92 | 1007.7 |
| 20260506034803 | 49 | 6 | 7.8 | 11.3 | 0.00 | 0.04 | 0.00 | 91 | 1007.8 |
| 20260506034303 | 49 | 12 | 7.8 | 12.2 | 0.00 | 0.04 | 0.00 | 92 | 1007.8 |
| 20260506034037 | 49 | 9 | 7.8 | 12.2 | 0.00 | 0.04 | 0.00 | 91 | 1007.8 |
| 20260506033302 | 49 | 6 | 8.7 | 12.2 | 0.00 | 0.04 | 0.00 | 91 | 1007.8 |
| 20260506032803 | 48 | 8 | 8.7 | 12.2 | 0.00 | 0.04 | 0.00 | 91 | 1007.8 |
| 20260506032305 | 48 | 12 | 8.7 | 13.9 | 0.00 | 0.04 | 0.00 | 92 | 1007.8 |
| 20260506031802 | 48 | 12 | 9.6 | 13.9 | 0.00 | 0.04 | 0.00 | 92 | 1007.9 |
| 20260506031302 | 49 | 18 | 10.4 | 14.8 | 0.00 | 0.04 | 0.00 | 90 | 1007.9 |
| 20260506031040 | 49 | 11 | 11.3 | 16.5 | 0.00 | 0.04 | 0.00 | 88 | 1007.9 |
| 20260506030302 | 49 | 15 | 10.4 | 16.5 | 0.00 | 0.04 | 0.00 | 88 | 1007.8 |
| 20260506025811 | 49 | 10 | 12.2 | 17.4 | 0.00 | 0.04 | 0.00 | 88 | 1007.9 |
| 20260506025308 | 49 | 9 | 12.2 | 17.4 | 0.00 | 0.04 | 0.00 | 86 | 1007.8 |
| 20260506024805 | 49 | 20 | 12.2 | 17.4 | 0.00 | 0.04 | 0.00 | 87 | 1008.0 |
| 20260506024303 | 49 | 10 | 13.0 | 18.2 | 0.00 | 0.04 | 0.00 | 86 | 1007.9 |
| 20260506023803 | 49 | 12 | 13.0 | 18.2 | 0.00 | 0.04 | 0.00 | 85 | 1008.0 |
| 20260506023304 | 49 | 9 | 12.2 | 17.4 | 0.00 | 0.04 | 0.00 | 84 | 1007.8 |
| 20260506022803 | 49 | 4 | 13.0 | 20.9 | 0.00 | 0.04 | 0.00 | 87 | 1007.9 |
| 20260506022305 | 49 | 3 | 14.8 | 20.9 | 0.00 | 0.04 | 0.00 | 86 | 1008.1 |
| 20260506021801 | 50 | 12 | 12.2 | 20.0 | 0.00 | 0.04 | 0.00 | 85 | 1007.7 |
| 20260506021301 | 50 | 17 | 7.8 | 14.8 | 0.00 | 0.04 | 0.00 | 86 | 1008.0 |
| 20260506021034 | 50 | 10 | 7.0 | 12.2 | 0.00 | 0.04 | 0.00 | 88 | 1008.1 |
| 20260506020301 | 50 | 35 | 8.7 | 13.9 | 0.00 | 0.04 | 0.00 | 87 | 1008.1 |
| 20260506015802 | 50 | 15 | 10.4 | 14.8 | 0.00 | 0.04 | 0.00 | 86 | 1008.0 |
| 20260506015305 | 50 | 4 | 10.4 | 14.8 | 0.00 | 0.04 | 0.00 | 86 | 1007.9 |
| 20260506014802 | 50 | 3 | 10.4 | 14.8 | 0.00 | 0.04 | 0.00 | 86 | 1007.9 |
| 20260506014302 | 50 | 4 | 10.4 | 14.8 | 0.00 | 0.04 | 0.00 | 87 | 1008.0 |
| 20260506013801 | 50 | 358 | 10.4 | 14.8 | 0.00 | 0.04 | 0.00 | 86 | 1008.0 |
| 20260506013304 | 50 | 7 | 10.4 | 14.8 | 0.00 | 0.04 | 0.00 | 87 | 1007.9 |
| 20260506012803 | 50 | 359 | 9.6 | 13.0 | 0.00 | 0.04 | 0.00 | 87 | 1008.0 |
| 20260506012301 | 50 | 351 | 8.7 | 12.2 | 0.00 | 0.04 | 0.00 | 87 | 1008.1 |
| 20260506011800 | 49 | 2 | 7.8 | 12.2 | 0.00 | 0.04 | 0.00 | 87 | 1008.2 |
| 20260506011301 | 49 | 358 | 7.8 | 12.2 | 0.00 | 0.04 | 0.00 | 87 | 1008.2 |
| 20260506010757 | 49 | 358 | 7.0 | 11.3 | 0.00 | 0.04 | 0.00 | 88 | 1008.2 |
| 20260506010257 | 49 | 311 | 7.0 | 9.6 | 0.00 | 0.04 | 0.00 | 87 | 1008.2 |
| 20260506005757 | 49 | 29 | 7.0 | 9.6 | 0.00 | 0.04 | 0.00 | 87 | 1008.3 |
| 20260506005258 | 49 | 349 | 7.0 | 10.4 | 0.00 | 0.04 | 0.00 | 87 | 1008.4 |
| 20260506004757 | 49 | 1 | 7.0 | 10.4 | 0.00 | 0.04 | 0.00 | 87 | 1008.4 |
| 20260506004256 | 49 | 14 | 7.0 | 9.6 | 0.00 | 0.04 | 0.00 | 89 | 1008.5 |
| 20260506003756 | 48 | 6 | 7.0 | 9.6 | 0.00 | 0.04 | 0.00 | 89 | 1008.5 |
| 20260506003255 | 48 | 359 | 7.0 | 9.6 | 0.00 | 0.04 | 0.00 | 89 | 1008.6 |
| 20260506002755 | 48 | 339 | 7.0 | 9.6 | 0.00 | 0.04 | 0.00 | 89 | 1008.6 |
| 20260506002252 | 48 | 8 | 6.1 | 9.6 | 0.00 | 0.04 | 0.00 | 90 | 1008.6 |
| 20260506001749 | 47 | 358 | 5.2 | 7.8 | 0.00 | 0.04 | 0.00 | 90 | 1008.7 |
| 20260506001249 | 47 | 337 | 5.2 | 7.8 | 0.00 | 0.04 | 0.00 | 90 | 1008.7 |
| 20260506000745 | 47 | 335 | 5.2 | 7.8 | 0.00 | 0.04 | 0.00 | 90 | 1008.8 |
| 20260506000247 | 47 | 333 | 6.1 | 7.8 | 0.00 | 0.04 | 0.00 | 89 | 1008.7 |
| 20260505235745 | 47 | 341 | 6.1 | 8.7 | 0.00 | 0.04 | 0.00 | 89 | 1008.8 |
| 20260505235515 | 47 | 349 | 6.1 | 8.7 | 0.00 | 0.04 | 0.00 | 88 | 1008.9 |
| 20260505234745 | 47 | 328 | 5.2 | 7.8 | 0.00 | 0.04 | 0.00 | 87 | 1008.9 |
| 20260505234246 | 47 | 324 | 5.2 | 7.8 | 0.00 | 0.04 | 0.00 | 87 | 1008.9 |
| 20260505233746 | 47 | 331 | 5.2 | 7.8 | 0.00 | 0.04 | 0.00 | 87 | 1008.9 |
| 20260505233515 | 48 | 323 | 5.2 | 7.8 | 0.00 | 0.04 | 0.00 | 87 | 1009.0 |
| 20260505232746 | 48 | 327 | 6.1 | 8.7 | 0.00 | 0.04 | 0.00 | 87 | 1009.1 |
| 20260505232514 | 48 | 340 | 7.0 | 10.4 | 0.00 | 0.04 | 0.00 | 87 | 1009.1 |
| 20260505231746 | 48 | 358 | 7.8 | 10.4 | 0.00 | 0.04 | 0.00 | 86 | 1009.2 |
| 20260505231246 | 48 | 8 | 7.8 | 10.4 | 0.00 | 0.04 | 0.00 | 85 | 1009.1 |
| 20260505230746 | 48 | 11 | 7.8 | 11.3 | 0.00 | 0.04 | 0.00 | 84 | 1009.2 |
| 20260505230247 | 48 | 10 | 7.8 | 11.3 | 0.00 | 0.04 | 0.00 | 84 | 1009.2 |
| 20260505230021 | 48 | 20 | 7.8 | 11.3 | 0.00 | 0.04 | 0.00 | 84 | 1009.3 |
| 20260505225244 | 48 | 10 | 7.8 | 11.3 | 0.00 | 0.04 | 0.00 | 83 | 1009.3 |
| 20260505224743 | 47 | 18 | 7.8 | 9.6 | 0.00 | 0.04 | 0.00 | 83 | 1009.2 |
| 20260505224243 | 47 | 12 | 7.0 | 8.7 | 0.00 | 0.04 | 0.00 | 84 | 1009.3 |
| 20260505223744 | 47 | 19 | 7.0 | 8.7 | 0.00 | 0.04 | 0.00 | 84 | 1009.3 |
| 20260505223244 | 47 | 16 | 6.1 | 8.7 | 0.00 | 0.04 | 0.00 | 84 | 1009.4 |
| 20260505222743 | 47 | 18 | 6.1 | 7.8 | 0.00 | 0.04 | 0.00 | 84 | 1009.4 |
| 20260505222244 | 47 | 15 | 6.1 | 8.7 | 0.00 | 0.04 | 0.00 | 85 | 1009.5 |
| 20260505221744 | 47 | 26 | 7.0 | 8.7 | 0.00 | 0.04 | 0.00 | 83 | 1009.4 |
| 20260505221510 | 48 | 20 | 7.0 | 9.6 | 0.00 | 0.04 | 0.00 | 82 | 1009.5 |
| 20260505220741 | 48 | 17 | 7.0 | 9.6 | 0.00 | 0.04 | 0.00 | 82 | 1009.5 |
| 20260505220251 | 49 | 13 | 8.7 | 11.3 | 0.00 | 0.04 | 0.04 | 81 | 1009.5 |
| 20260505220247 | 48 | 11 | 7.8 | 11.3 | 0.00 | 0.04 | 0.00 | 82 | 1009.5 |
| 20260505215238 | 49 | 13 | 9.6 | 12.2 | 0.00 | 0.04 | 0.04 | 80 | 1009.4 |
| 20260505214736 | 49 | 4 | 9.6 | 13.0 | 0.00 | 0.04 | 0.04 | 80 | 1009.4 |
| 20260505214235 | 49 | 12 | 9.6 | 13.0 | 0.00 | 0.04 | 0.04 | 78 | 1009.5 |
| 20260505213736 | 49 | 1 | 8.7 | 13.9 | 0.00 | 0.04 | 0.04 | 79 | 1009.5 |
| 20260505213236 | 50 | 9 | 8.7 | 13.9 | 0.00 | 0.04 | 0.04 | 78 | 1009.5 |
| 20260505212735 | 50 | 4 | 9.6 | 13.9 | 0.00 | 0.04 | 0.04 | 77 | 1009.5 |
| 20260505212502 | 50 | 11 | 9.6 | 13.9 | 0.00 | 0.04 | 0.04 | 78 | 1009.5 |
| 20260505212006 | 50 | 3 | 10.4 | 13.9 | 0.00 | 0.04 | 0.04 | 77 | 1009.5 |
| 20260505211236 | 50 | 0 | 10.4 | 13.9 | 0.00 | 0.04 | 0.04 | 77 | 1009.4 |
| 20260505210736 | 50 | 358 | 10.4 | 13.9 | 0.00 | 0.04 | 0.04 | 78 | 1009.5 |
| 20260505210238 | 50 | 9 | 10.4 | 13.9 | 0.00 | 0.04 | 0.04 | 78 | 1009.5 |
| 20260505205746 | 50 | 10 | 11.3 | 15.6 | 0.00 | 0.04 | 0.04 | 78 | 1009.7 |
| 20260505205740 | 50 | 3 | 10.4 | 13.0 | 0.00 | 0.04 | 0.04 | 78 | 1009.6 |
| 20260505204736 | 50 | 2 | 11.3 | 15.6 | 0.00 | 0.04 | 0.04 | 78 | 1009.7 |
| 20260505204233 | 50 | 11 | 11.3 | 16.5 | 0.00 | 0.04 | 0.04 | 78 | 1009.6 |
| 20260505203733 | 50 | 11 | 11.3 | 17.4 | 0.00 | 0.04 | 0.04 | 78 | 1009.7 |
| 20260505203234 | 50 | 22 | 11.3 | 17.4 | 0.00 | 0.04 | 0.04 | 78 | 1009.7 |
| 20260505202733 | 50 | 11 | 9.6 | 13.9 | 0.00 | 0.04 | 0.04 | 78 | 1009.6 |
| 20260505202512 | 50 | 359 | 10.4 | 14.8 | 0.00 | 0.04 | 0.04 | 80 | 1009.7 |
| 20260505201733 | 50 | 5 | 10.4 | 14.8 | 0.00 | 0.04 | 0.04 | 79 | 1009.7 |
| 20260505201512 | 50 | 5 | 11.3 | 14.8 | 0.00 | 0.04 | 0.04 | 79 | 1009.7 |
| 20260505200747 | 50 | 2 | 11.3 | 14.8 | 0.00 | 0.04 | 0.04 | 79 | 1009.7 |
| 20260505200742 | 50 | 7 | 11.3 | 14.8 | 0.00 | 0.04 | 0.04 | 79 | 1009.6 |
| 20260505195732 | 51 | 8 | 11.3 | 15.6 | 0.00 | 0.04 | 0.04 | 79 | 1009.6 |
| 20260505195512 | 51 | 7 | 11.3 | 15.6 | 0.00 | 0.04 | 0.04 | 79 | 1009.6 |
| 20260505194731 | 51 | 8 | 12.2 | 17.4 | 0.00 | 0.04 | 0.04 | 79 | 1009.5 |
| 20260505194228 | 51 | 10 | 13.0 | 17.4 | 0.00 | 0.04 | 0.04 | 79 | 1009.4 |
| 20260505193726 | 51 | 6 | 13.0 | 17.4 | 0.00 | 0.04 | 0.04 | 79 | 1009.3 |
| 20260505193222 | 51 | 3 | 12.2 | 16.5 | 0.00 | 0.04 | 0.04 | 78 | 1009.5 |
| 20260505192723 | 51 | 359 | 13.0 | 20.0 | 0.00 | 0.04 | 0.04 | 79 | 1009.4 |
| 20260505192222 | 51 | 0 | 14.8 | 21.7 | 0.00 | 0.04 | 0.04 | 78 | 1009.3 |
| 20260505191958 | 51 | 8 | 15.6 | 21.7 | 0.00 | 0.04 | 0.04 | 78 | 1009.2 |
| 20260505191223 | 52 | 10 | 14.8 | 21.7 | 0.01 | 0.04 | 0.04 | 78 | 1009.0 |
| 20260505190723 | 52 | 11 | 14.8 | 22.6 | 0.01 | 0.04 | 0.04 | 78 | 1008.9 |
| 20260505190514 | 52 | 11 | 14.8 | 22.6 | 0.01 | 0.04 | 0.04 | 78 | 1009.0 |
| 20260505185723 | 52 | 6 | 14.8 | 20.9 | 0.00 | 0.03 | 0.03 | 77 | 1009.0 |
| 20260505185222 | 52 | 13 | 13.9 | 18.2 | 0.00 | 0.03 | 0.03 | 77 | 1008.8 |